Bettles, AK

3:07 AM AKDT on July 17, 2019 (GMT -0800)
Bettles

Weather History for PABT - May, 2019

Change the Weather History Date:

Monday, May 20, 2019

  Actual Average Record
Temperature  
Mean Temperature 57 °F -  
Max Temperature 70 °F 55 °F 73 °F (2002)
Min Temperature 44 °F 35 °F 22 °F (1983)
Degree Days  
Heating Degree Days 8    
Growing Degree Days 7 (Base 50)    
Moisture  
Dew Point 42 °F    
Average Humidity 62    
Maximum Humidity 86    
Minimum Humidity 28    
Precipitation  
Precipitation 0.01 in - - ()
Snow  
Snow 0.00 in - - ()
Snow Depth 1.00 in    
Sea Level Pressure  
Sea Level Pressure 29.77 in    
Wind  
Wind Speed 7 mph (North)    
Max Wind Speed 13 mph    
Max Gust Speed 24 mph    
Visibility 10 miles    
Events Rain , Thunderstorm    
Averages and records for this station are not official NWS values.
T = Trace of Precipitation, MM = Missing Value Source: NWS Daily Summary

Daily Weather History Graph

Daily Weather History Graph

Search for Another Location

Airport or City:

Astronomy

May. 20, 2019 Rise Set
Actual Time 3:49 AM AKDT 12:19 AM AKDT
Civil Twilight Sun does not set Sun does not set
Nautical Twilight Sun does not set Sun does not set
Astronomical Twilight Sun does not set Sun does not set
Moon 1:28 AM AKDT (5/20) 5:19 AM AKDT (5/20)
Length of Visible Light 24h 00m
Length of Day
20h 29m
Waning Gibbous, 96% of the Moon is Illuminated
May 20
Waning Gibbous
May 26
Last Quarter
Jun 3
New
Jun 9
First Quarter
Jun 17
Full

Hourly Weather History & Observations

Time (AKDT) Temp. Windchill Dew Point Humidity Pressure Visibility Wind Dir Wind Speed Gust Speed Precip Events Conditions
12:53 AM 48.9 °F - 39.0 °F 69% 29.78 in 10.0 mi North 6.9 mph - N/A   Mostly Cloudy
1:53 AM 48.0 °F - 39.0 °F 71% 29.78 in 10.0 mi North 6.9 mph - N/A   Mostly Cloudy
2:53 AM 46.0 °F 43.9 °F 37.9 °F 73% 29.78 in 10.0 mi WNW 4.6 mph - N/A   Mostly Cloudy
3:53 AM 46.0 °F 43.1 °F 37.9 °F 73% 29.78 in 10.0 mi WNW 5.8 mph - N/A   Mostly Cloudy
4:53 AM 46.0 °F 43.1 °F 37.9 °F 73% 29.79 in 10.0 mi NNW 5.8 mph - N/A   Mostly Cloudy
5:53 AM 45.0 °F 41.8 °F 37.9 °F 76% 29.79 in 10.0 mi NNW 5.8 mph - 0.00 in Rain Light Rain
6:53 AM 45.0 °F 40.6 °F 39.9 °F 82% 29.79 in 10.0 mi North 8.1 mph - 0.00 in   Mostly Cloudy
7:53 AM 46.0 °F 44.8 °F 42.1 °F 86% 29.80 in 10.0 mi NW 3.5 mph - 0.00 in   Mostly Cloudy
8:53 AM 50.0 °F - 43.0 °F 77% 29.80 in 10.0 mi NNW 6.9 mph - 0.00 in   Mostly Cloudy
9:53 AM 52.0 °F - 43.0 °F 71% 29.80 in 10.0 mi NNW 6.9 mph - N/A   Mostly Cloudy
10:53 AM 59.0 °F - 44.1 °F 58% 29.77 in 10.0 mi North 6.9 mph - 0.01 in   Scattered Clouds
11:53 AM 63.0 °F - 42.1 °F 46% 29.75 in 10.0 mi NE 11.5 mph 19.6 mph N/A   Partly Cloudy
12:53 PM 64.9 °F - 42.1 °F 43% 29.75 in 10.0 mi NNE 11.5 mph 17.3 mph N/A   Mostly Cloudy
1:53 PM 62.1 °F - 41.0 °F 46% 29.75 in 10.0 mi NNE 9.2 mph - 0.00 in   Mostly Cloudy
2:53 PM 64.0 °F - 41.0 °F 43% 29.75 in 10.0 mi NNE 12.7 mph 21.9 mph 0.00 in Rain Light Rain
3:53 PM 68.0 °F - 42.1 °F 39% 29.73 in 10.0 mi ENE 8.1 mph 19.6 mph 0.00 in   Overcast
4:53 PM 68.0 °F - 41.0 °F 37% 29.72 in 10.0 mi NE 11.5 mph 20.7 mph N/A   Mostly Cloudy
5:53 PM 66.9 °F - 39.9 °F 37% 29.72 in 10.0 mi ENE 11.5 mph 21.9 mph N/A   Mostly Cloudy
6:03 PM 66.9 °F - 39.9 °F 37% 29.69 in 10.0 mi ENE 11.5 mph 20.7 mph N/A Thunderstorm Thunderstorm
6:43 PM 55.9 °F - 46.0 °F 69% 29.74 in 10.0 mi East 12.7 mph 24.2 mph 0.00 in Rain , Thunderstorm Light Thunderstorms and Rain
6:53 PM 55.0 °F - 46.0 °F 72% 29.75 in 10.0 mi East 6.9 mph - N/A Rain , Thunderstorm Light Thunderstorms and Rain
7:53 PM 55.0 °F - 46.9 °F 74% 29.77 in 10.0 mi SW 8.1 mph - 0.00 in   Mostly Cloudy
8:53 PM 57.0 °F - 45.0 °F 64% 29.77 in 10.0 mi North 6.9 mph - N/A   Mostly Cloudy
9:53 PM 54.0 °F - 44.1 °F 69% 29.80 in 10.0 mi WNW 4.6 mph - N/A   Mostly Cloudy
10:53 PM 51.1 °F - 43.0 °F 74% 29.82 in 10.0 mi NNW 4.6 mph - N/A   Mostly Cloudy
11:53 PM 50.0 °F - 42.1 °F 74% 29.83 in 10.0 mi North 3.5 mph - N/A   Mostly Cloudy